Location: Cornelia
(42.7900°N, 93.6833°W)
Time: 01:57:04
(UTC+00:00)

Daily predictions for brighter satellites

Satellite Brightness Start Highest point End
(mag) Time Altitude Azimuth Time Altitude Azimuth Time Altitude Azimuth
Cosmos 1805 Rocket 3.5 01:54:47 10° N 01:59:08 74° E 02:03:30 10° SSE
ERS-2 2.3 01:56:34 10° NNE 02:00:13 80° WNW 02:03:49 10° SSW
OBJECT-B 0.7 01:57:57 10° SSE 02:01:10 77° ENE 02:04:25 10° N
Cosmos 1553 Rocket 4.2 01:56:53 10° S 02:03:01 80° W 02:09:19 10° N
Cosmos 1633 Rocket 4.0 01:59:37 10° NNE 02:03:32 30° ENE 02:07:26 10° SE
Cosmos 1437 Rocket 3.3 02:00:29 10° SSW 02:04:20 63° WNW 02:08:17 10° N
Cosmos 1328 Rocket 4.4 02:06:59 10° SSE 02:10:52 31° E 02:14:46 10° NNE
USA 267 4.1 02:05:06 10° SSE 02:11:21 46° SW 02:17:38 10° WNW
Cosmos 1606 4.3 02:08:57 10° SSW 02:12:29 38° WNW 02:16:03 10° N
Helios 1A Rocket 4.2 02:11:04 10° S 02:14:59 41° W 02:18:55 10° NNW
USA 308 4.4 02:11:41 10° NW 02:15:30 30° NNE 02:19:19 10° E
USA 290 2.8 02:12:28 10° NNW 02:15:39 55° WSW 02:18:46 10° S
Cosmos 1777 Rocket 4.4 02:12:03 10° S 02:16:52 40° ESE 02:21:43 10° NE
Cosmos 2082 Rocket 3.8 02:14:29 10° N 02:18:37 20° NE 02:22:44 10° E
Cosmos 1503 Rocket 4.2 02:13:33 10° SSW 02:18:43 77° WNW 02:23:57 10° NNE
MOS 1-B Rocket 4.3 02:12:03 10° NNE 02:19:19 88° ESE 02:25:29 10° SSW
OE (NEXTSAT) 4.4 02:17:04 10° WNW 02:20:33 79° NNE 02:23:43 12° ESE
Cosmos 1602 3.9 02:18:12 10° N 02:22:01 53° E 02:25:49 10° SSE
Meteor 1-26 Rocket 4.3 02:16:28 10° S 02:22:02 61° E 02:27:27 10° NNE
Ariane Rocket 3.0 02:18:07 10° SSE 02:23:10 81° ENE 02:28:15 10° NNW
CREW DRAGON DEMO-1 DEB 4.3 02:23:12 10° NW 02:25:27 24° NNE 02:27:42 10° E
Tianhe-1 3.0 02:26:39 10° S 02:28:15 14° SSE 02:28:15 14° SSE
Cosmos 1437 2.9 02:25:51 10° SSE 02:28:31 38° E 02:31:11 10° NNE
Cosmos 1933 3.7 02:26:08 10° SSW 02:30:08 67° W 02:34:09 10° N
Resurs 1-3 3.6 02:28:01 10° SSE 02:32:23 89° WSW 02:36:49 10° NNW
COSMOS 2406 3.8 02:27:02 10° NNW 02:32:28 45° ENE 02:36:56 15° SE
ARIANE 5 R/B 4.3 02:31:08 12° ESE 02:33:42 19° ENE 02:36:45 10° NNE
Cosmos 1666 Rocket 3.5 02:29:44 10° N 02:34:08 79° E 02:38:28 10° S
Cosmos 1782 2.7 02:31:59 10° S 02:35:57 75° E 02:39:56 10° NNE
Cosmos 1812 3.4 02:37:34 15° SSE 02:40:16 35° E 02:43:48 10° NNE
SJ 16-02 2.1 02:36:31 10° SSE 02:40:29 33° E 02:44:28 10° NE
Cosmos 2278 Rocket 2.3 02:36:24 10° S 02:41:54 55° ESE 02:47:25 10° NNE
Sich 1 4.0 02:37:45 10° NNW 02:41:56 49° W 02:46:09 10° SSW
Meteor 1-14 Rocket 4.4 02:36:22 10° N 02:42:08 59° ENE 02:46:52 15° SSE
Cosmos 1666 4.0 02:40:59 10° NNE 02:44:02 23° ENE 02:45:30 18° ESE
Landsat 7 3.9 02:45:52 16° SSE 02:49:35 63° ENE 02:54:19 10° N
USA 245 3.8 02:50:48 18° ENE 02:50:48 18° ENE 02:52:25 10° NNE
Cosmos 1151 Rocket 3.3 02:49:01 10° SSW 02:53:21 71° W 02:57:44 10° N
USA 305 3.5 02:50:43 10° NW 02:54:53 51° NNE 02:57:39 20° ESE
ATLAS 5 CENTAUR R/B 3.3 02:49:45 10° NW 02:55:17 45° WSW 03:01:21 11° S
CZ-4C R/B 3.1 02:50:59 10° NW 02:58:23 86° NE 03:04:45 20° SE
NOSS 3-4 (A) 4.3 02:54:52 10° NNW 03:01:41 53° NE 03:07:09 19° ESE
NOSS 3-4 (C) 4.3 02:54:58 10° NNW 03:01:48 53° NE 03:07:15 19° ESE
IGS 5A 3.6 03:03:39 18° S 03:06:40 74° WSW 03:10:49 10° NNW
SPOT 1/Viking Rocket 3.6 03:03:30 22° SSE 03:06:51 65° ENE 03:12:00 10° N
USA 306 3.0 03:10:10 10° NW 03:14:26 68° NE 03:16:24 30° ESE
Cosmos 1500 3.4 03:10:42 10° NNW 03:14:26 67° W 03:16:32 24° S
ATLAS 2AS CENTAUR R/B 3.6 03:08:02 10° NNW 03:14:57 40° NE 03:19:41 18° ESE
SWARM C 4.4 03:12:02 10° N 03:15:22 80° E 03:16:29 38° S
SWARM A 4.1 03:12:09 10° N 03:15:29 83° E 03:16:39 37° S
Cosmos 1833 Rocket 2.7 03:12:38 10° NNW 03:18:19 82° WSW 03:21:40 25° SSE
CZ-2C R/B 3.7 03:14:17 10° NNE 03:18:49 84° WNW 03:23:09 11° SSW
SPOT 3 Rocket 4.0 03:18:18 16° S 03:22:18 57° W 03:27:24 10° NNW
Cosmos 2228 Rocket 3.5 03:21:23 34° SE 03:22:39 43° E 03:26:53 10° NNE
Cosmos 2184 Rocket 4.0 03:16:32 10° N 03:22:41 62° E 03:26:01 28° SSE
Resurs 01 Rocket 2.6 03:19:13 15° SSW 03:22:42 44° W 03:26:58 10° NNW
GPS 2-04 Rocket1 3.7 03:19:45 10° WSW 03:23:20 29° S 03:23:21 29° S
Cosmos 1536 3.9 03:20:33 10° NNE 03:24:04 28° ENE 03:24:37 27° E
Cosmos 2074 Rocket 4.0 03:18:19 10° N 03:24:37 67° E 03:28:08 27° SSE
Nadezhda 1 Rocket 4.4 03:21:49 26° SSE 03:24:56 46° E 03:30:50 10° NNE
Meteor 1-11 Rocket 4.1 03:19:36 10° N 03:25:25 52° ENE 03:28:06 30° SE
X-37B 2.6 03:24:25 10° W 03:26:35 18° SW 03:26:35 18° SW
Cosmos 1538 Rocket 4.1 03:22:27 10° NNW 03:27:50 80° WSW 03:30:35 29° S
deb Kosmos-1763 4.0 03:24:54 10° NNW 03:28:26 72° WSW 03:29:21 46° S
Spot 2 Rocket 3.4 03:28:09 31° SSE 03:30:34 79° ENE 03:35:38 10° N
Meteor 1-5 Rocket 4.1 03:25:55 10° NNW 03:31:16 76° W 03:34:19 26° S
ERS-1 Rocket 3.2 03:29:55 33° SE 03:31:51 53° ENE 03:36:45 10° N
Cosmos 1515 Rocket 4.1 03:30:24 14° SSW 03:34:06 58° W 03:38:26 10° N
Delta 2 Rocket 4.3 03:35:37 10° WSW 03:39:54 34° S 03:39:54 34° S
JB-3 4.1 03:36:33 10° NNE 03:40:26 86° E 03:41:28 47° S
Cosmos 1869 Rocket 3.8 03:37:25 10° N 03:41:40 52° E 03:42:25 46° ESE
USA 307 2.8 03:37:45 10° NW 03:42:03 81° SW 03:42:59 53° SE
Cosmos 1680 Rocket 4.0 03:38:08 10° N 03:43:18 48° ENE 03:44:59 35° ESE
Cosmos 2297 4.0 03:42:09 37° SE 03:43:32 44° ESE 03:48:53 10° NE
BREEZE-M R/B 4.4 03:43:06 10° NW 03:44:58 19° N 03:46:35 12° NE
Meteor 1-10 Rocket 4.3 03:43:16 19° SSW 03:47:25 75° W 03:53:07 10° N
Cosmos 1610 Rocket 4.5 03:41:58 10° N 03:48:04 65° E 03:50:27 38° SSE
Cosmos 1271 Rocket 3.2 03:46:58 29° SSW 03:48:48 60° WNW 03:52:47 10° N
BREEZE-M DEB (TANK) 3.0 03:49:47 10° NW 03:51:23 28° N 03:51:23 28° N
Milstar 3 4.0 03:40:29 10° WSW 03:53:17 37° S 03:56:12 31° SSE
USA 308 2.9 03:51:30 10° WNW 03:55:46 64° SW 03:56:12 59° S
Terra 1.9 03:56:00 50° SE 03:57:01 64° ENE 04:01:45 10° N
Cosmos 1900 4.3 03:55:46 44° S 03:57:11 63° ESE 04:02:12 10° NE
Cosmos 1707 Rocket 4.1 03:57:35 42° E 03:57:35 42° E 04:01:37 10° NNE
H-2A R/B 3.5 03:53:38 10° NNE 03:57:45 57° E 03:57:45 57° E
Cosmos 44 4.0 03:52:30 10° NNW 03:57:48 51° NE 03:59:24 38° E
SL-24 R/B - RUBIN 2 4.4 03:53:48 10° NNW 03:59:07 51° NE 04:00:28 39° E
CARTOSAT-1 3.9 03:58:15 42° SSW 03:59:25 58° W 04:03:41 10° NNW
Cosmos 2082 Rocket 2.3 03:57:39 10° NNW 04:03:15 70° WSW 04:05:04 43° S
Cosmos 1461 4.2 04:04:50 30° ENE 04:04:50 30° ENE 04:07:43 10° NE
Cosmos 1295 Rocket 4.4 04:03:24 10° N 04:09:48 83° E 04:11:59 44° SSE
ARIANE 5 R/B 3.5 04:08:41 34° SW 04:09:51 41° W 04:13:58 10° NNW
Cosmos 1818 4.2 04:07:18 10° NNW 04:12:35 46° NE 04:14:10 36° E
SPOT 5 3.2 04:12:49 44° SSW 04:14:19 64° W 04:19:36 10° NNW
Cosmos 2341 Rocket 4.3 04:08:12 10° N 04:14:31 56° ENE 04:16:10 44° SE
Cosmos 1898 Rocket 3.4 04:14:18 46° SSW 04:15:58 89° ESE 04:21:21 10° NNE
SJ 16-02 3.6 04:15:30 10° WSW 04:19:06 24° WNW 04:22:44 10° N
Cosmos 923 Rocket 4.2 04:15:15 10° NNW 04:20:28 63° WSW 04:21:36 50° SSW
Cosmos 1943 Rocket 2.1 04:20:39 57° SSE 04:21:32 66° ESE 04:27:06 10° NNE
Cosmos 990 Rocket 4.3 04:19:25 31° SW 04:21:55 66° WNW 04:27:10 10° NNE
Cosmos 2278 Rocket 4.4 04:21:46 10° WSW 04:26:20 25° NW 04:30:56 10° N
DNEPR-1 R/B 4.0 04:25:23 35° SSW 04:28:03 88° ESE 04:33:11 10° NE
Cosmos 1733 Rocket 3.4 04:24:55 10° N 04:28:48 53° ENE 04:28:48 53° ENE
Cosmos 2369 Rocket 2.7 04:33:00 41° E 04:33:00 41° E 04:37:47 10° NE
USA 305 4.5 04:30:59 10° WNW 04:33:44 26° WSW 04:33:44 26° WSW
Cosmos 1544 4.1 04:33:28 10° NNW 04:36:20 43° WNW 04:36:20 43° WNW
Okean 1 3.9 04:40:40 51° NNE 04:40:40 51° NNE 04:43:45 10° N
Cosmos 2084 Rocket 3.6 04:36:25 10° NNW 04:40:24 70° NNE 04:40:24 70° NNE
Cosmos 1340 Rocket 3.4 04:37:27 10° NNW 04:41:05 52° WNW 04:41:05 52° WNW
Cosmos 1743 3.4 04:38:23 10° NNW 04:41:34 53° NW 04:41:34 53° NW
SL-8 Rocket 4.0 04:37:44 10° N 04:44:05 73° E 04:45:15 59° SE
Cosmos 1238 Rocket 3.4 04:39:22 10° N 04:45:20 79° E 04:45:44 74° SE
Meteor 2-9 Rocket 4.2 04:41:49 10° N 04:47:34 68° ENE 04:48:06 64° ESE
Meteor 1-19 Rocket 3.9 04:54:24 80° SSE 04:54:41 85° E 05:00:06 10° NNE
Gbstr 26 Del rocket 4.0 04:54:27 10° NW 05:01:51 79° NNE 05:03:26 54° ESE
Cosmos 2263 4.4 05:04:30 55° E 05:04:30 55° E 05:09:45 10° NNE
Cosmos 1867 3.9 05:05:36 53° ENE 05:05:36 53° ENE 05:10:06 10° NE
ATLAS 2AS CENTAUR R/B 3.0 04:59:08 10° NW 05:06:05 51° WSW 05:07:07 47° SW
Cosmos 864 Rocket 4.3 05:04:14 10° N 05:10:25 90° E 05:11:06 72° S
Cosmos 1862 Rocket 4.2 05:12:56 50° NW 05:12:56 50° NW 05:16:40 10° N
Meteor 2-4 Rocket 3.7 05:12:56 71° E 05:12:57 71° E 05:18:34 10° NNE
Cosmos 1959 Rocket 4.3 05:06:51 10° N 05:13:06 84° W 05:13:48 71° SSW
Cosmos 1975 3.9 05:12:55 10° N 05:15:40 43° NNW 05:15:40 43° NNW
Okean 1-7 4.1 05:23:18 39° NNE 05:23:18 39° NNE 05:26:11 10° NNE
RESURS DK-1 3.6 05:19:48 10° NNW 05:22:55 39° NNE 05:22:55 39° NNE
ISS -0.7 05:30:09 13° NE 05:30:09 13° NE 05:30:41 10° NE
Cosmos 1833 4.4 05:25:48 10° NNW 05:31:32 60° ENE 05:31:57 59° E
Cosmos 1048 Rocket 4.1 05:28:22 10° NNW 05:33:26 69° NE 05:33:26 69° NE
Terra 4.1 05:34:53 14° W 05:35:12 14° W 05:37:42 10° WNW
Gblst 52 Del rocket 4.3 05:36:26 10° WNW 05:43:16 89° SW 05:43:42 79° SE
Cosmos 1821 Rocket 3.9 05:38:34 10° N 05:45:01 78° E 05:45:32 72° SE
Cosmos 44 Rocket 4.4 05:41:59 10° NNW 05:46:55 40° NE 05:47:34 38° ENE
ALOS 2 3.4 05:52:15 49° NNW 05:52:15 49° NNW 05:55:30 10° NNW
Cosmos 2298 Rocket 4.1 05:51:26 71° NW 05:51:26 71° NW 05:56:30 10° NNE
Thor Agena Rocket 4.0 05:48:07 10° NNE 05:52:40 53° ENE 05:52:40 53° ENE
Cosmos 1607 4.3 05:57:01 48° WSW 05:58:39 63° NW 06:05:07 10° NNE
SeaSat 1 3.7 05:57:50 10° NE 06:01:03 32° ENE 06:01:03 32° ENE
Meteor 1-12 Rocket 4.2 05:58:07 10° N 06:03:55 88° NNW 06:03:55 88° NNW
ATLAS CENTAUR R/B 3.1 06:06:18 28° N 06:06:18 28° N 06:08:21 10° NNE
Cosmos 1943 Rocket 4.3 06:02:06 12° W 06:05:47 21° NW 06:09:59 10° N
Cosmos 2369 Rocket 3.7 06:14:45 25° W 06:16:39 30° NW 06:21:36 10° N
Sich 1 Rocket 4.3 06:14:26 10° N 06:17:54 52° N 06:17:54 52° N
Cosmos 1656 Rocket 4.5 06:19:41 39° W 06:20:28 41° WNW 06:25:43 10° NNE
Cosmos 494 Rocket 4.5 06:16:03 10° NNW 06:20:13 51° WNW 06:20:13 51° WNW
Cosmos 1300 Rocket 4.4 06:17:55 10° N 06:21:09 47° N 06:21:09 47° N
Lacrosse 5 2.5 06:27:22 49° ENE 06:27:22 49° ENE 06:31:09 10° NE
Nadezhda 3 Rocket 4.3 06:25:44 51° W 06:26:22 53° WNW 06:32:26 10° N
CZ-2D R/B 4.2 06:29:34 10° NE 06:32:30 15° E 06:33:07 14° E
Okean 2 Rocket 3.9 06:30:42 10° N 06:33:57 49° N 06:33:57 49° N
Cosmos 1125 Rocket 4.3 06:35:03 41° WNW 06:35:16 41° WNW 06:40:13 10° N
Meteor 1-15 Rocket 4.2 06:29:46 10° NNW 06:35:25 81° W 06:35:25 81° W
Cosmos 2151 Rocket 4.3 06:31:58 10° N 06:35:33 51° NNE 06:35:33 51° NNE
NOSS 2-1 (E) 4.4 06:32:22 10° NNW 06:37:33 74° NE 06:38:50 57° ESE
Resurs 1-4 Rocket 4.1 06:35:25 10° NE 06:38:47 17° E 06:39:15 17° E
Helios 1A 4.3 06:42:57 34° NE 06:42:57 34° NE 06:46:19 10° N
USA 215 3.5 06:39:06 18° ESE 06:44:04 66° NE 06:50:33 10° NW
Cosmos 1726 4.2 06:46:29 10° NNE 06:48:44 25° NE 06:48:44 25° NE
Cosmos 1470 4.4 06:46:17 10° N 06:49:01 31° NE 06:49:01 31° NE
Cosmos 1605 Rocket 3.8 06:44:34 10° N 06:50:53 88° E 06:51:32 74° SSE
USA 281 4.2 06:49:17 20° ESE 06:53:26 42° ENE 06:59:33 10° NNW
Cosmos 1400 Rocket 3.9 06:59:58 10° N 07:02:50 43° N 07:02:50 43° N
ISS -0.9 07:03:02 10° NW 07:05:28 18° N 07:07:54 10° NE
Cosmos 2227 Rocket 3.6 07:01:56 10° N 07:07:02 33° NE 07:10:57 15° ESE
EO 1 Delta rocket 4.5 07:09:24 52° W 07:09:24 52° W 07:15:01 10° NNW
Cosmos 2297 Rocket 3.1 07:04:24 10° NNW 07:09:51 44° ENE 07:12:27 27° ESE
Cosmos 1315 Rocket 4.4 07:06:58 10° NNE 07:10:25 29° ENE 07:10:25 29° ENE
Cosmos 1378 Rocket 4.1 07:11:27 55° N 07:11:27 55° N 07:14:52 10° N
USA 81 4.3 07:07:24 10° NNW 07:12:19 58° WNW 07:12:19 58° WNW
Meteor 1-21 4.2 07:14:39 68° SE 07:15:14 74° E 07:21:02 10° NNE
Okean 2 4.1 07:17:44 53° N 07:17:44 53° N 07:20:59 10° N
Cosmos 1656 3.6 07:26:41 64° SE 07:27:01 65° ESE 07:32:28 10° NNE
Meteor 2-20 Rocket 4.3 07:29:30 64° S 07:30:33 89° W 07:36:46 10° N
Cosmos 2100 Rocket 4.1 07:24:32 10° N 07:30:52 72° E 07:32:47 47° SSE
Cosmos 2251 Rocket 3.8 07:26:47 10° NNW 07:32:00 62° ENE 07:33:16 47° ESE
Cosmos 1707 3.5 07:33:30 49° N 07:33:30 49° N 07:36:22 10° N
Cosmos 1802 Rocket 4.4 07:27:02 10° N 07:33:03 55° ENE 07:35:31 34° SE
Okean 1 Rocket 3.7 07:31:09 10° NNW 07:34:35 48° NW 07:34:35 48° NW
SeaSat 1 3.6 07:35:30 10° N 07:39:50 31° NW 07:40:49 29° WNW
CZ-4 R/B 4.2 07:41:11 10° N 07:45:51 50° WNW 07:45:58 50° WNW
COSMOS 2455 2.7 07:40:16 10° NNW 07:46:17 74° WSW 07:47:29 57° S
Helios 1B rocket 2.8 07:43:48 10° NNE 07:47:45 59° E 07:47:45 59° E
Cosmos 1908 4.4 07:44:46 10° N 07:48:25 37° ENE 07:48:52 36° E
Cosmos 371 Rocket 3.1 07:48:59 80° S 07:49:16 86° ESE 07:54:11 10° NNE
Cosmos 1000 Rocket 4.4 07:48:50 54° SSW 07:50:25 87° W 07:56:43 10° N
Cosmos 332 Rocket 4.0 07:53:44 55° SE 07:54:18 60° ESE 07:59:07 10° NNE
Cosmos 2219 3.2 07:48:48 10° NNW 07:54:33 85° ENE 07:56:43 40° SSE
Cosmos 1727 Rocket 4.4 07:54:04 42° WSW 07:55:22 48° WNW 08:01:31 10° N
USA 276 4.0 08:01:29 27° NNW 08:01:35 27° NNW 08:04:22 10° NE
Lacrosse 4 Rocket 2.1 08:02:37 45° SE 08:02:57 46° ESE 08:07:12 10° NE
SL-16 R/B 2.5 08:00:36 38° SSE 08:03:13 87° WSW 08:09:31 10° NNW
Cosmos 1544 Rocket 4.2 07:59:00 10° N 08:03:18 50° ENE 08:04:39 37° SE
Cosmos 1953 2.3 08:00:21 10° N 08:04:21 73° E 08:04:27 72° E
ADEOS II 2.8 07:59:53 10° NNE 08:04:55 45° E 08:06:52 31° SSE
Lacrosse 5 3.5 08:06:31 17° WNW 08:09:28 28° NNW 08:13:53 10° NNE
AQUA 3.9 08:05:24 10° NNE 08:10:10 72° ESE 08:11:12 53° SSE
Landsat 4 4.0 08:07:37 10° NNE 08:11:21 58° ESE 08:11:29 57° ESE
NPP 3.6 08:07:05 10° NNE 08:12:30 89° WNW 08:14:01 50° SSW
CZ-2D R/B 2.1 08:07:43 10° N 08:13:07 73° WNW 08:14:26 51° SW
Cosmos 1455 Rocket 2.8 08:09:02 10° NNW 08:13:23 75° W 08:13:38 72° SW
Meteor 1-29 3.1 08:14:58 10° NNE 08:18:11 66° ENE 08:18:11 66° ENE
Resurs 1-4 Rocket 2.2 08:13:49 10° N 08:19:01 62° WNW 08:20:20 47° SW
ADEOS Rocket 4.0 08:13:52 10° SSE 08:21:10 60° ENE 08:28:48 10° N
BREEZE-M DEB (TANK) 3.2 08:19:53 45° WSW 08:21:32 88° SSE 08:34:45 10° ENE
Cosmos 1536 Rocket 4.3 08:20:10 33° SE 08:21:41 47° E 08:25:58 10° NNE
MINOTAUR 4 R/B 4.0 08:24:10 76° WNW 08:24:10 76° WNW 08:27:34 10° NNW
Cosmos 1726 4.4 08:22:12 10° NW 08:23:10 14° WNW 08:23:10 14° WNW
Cosmos 1674 3.0 08:25:26 52° WNW 08:25:26 52° WNW 08:29:05 10° N
Cosmos 407 Rocket 3.7 08:20:08 10° NNW 08:25:30 74° ENE 08:29:41 17° SSE
Cosmos 1697 Rocket 2.6 08:24:06 45° SSW 08:25:55 82° WNW 08:31:34 10° NNE
Cosmos 2360 4.2 08:24:06 43° SSW 08:26:07 84° ESE 08:31:53 10° NNE
Cosmos 1725 Rocket 3.9 08:20:08 10° N 08:26:25 82° W 08:29:35 31° S
USA 215 3.6 08:26:21 37° SSW 08:27:17 38° SW 08:33:19 10° WNW
GP-B 3.7 08:24:23 10° N 08:28:44 54° E 08:30:46 29° SSE
Meteor 1-16 Rocket 4.3 08:23:11 10° NNW 08:29:05 68° W 08:31:25 37° SSW
Cosmos 1459 Rocket 4.4 08:24:32 10° NNW 08:30:23 43° W 08:32:04 36° SW
Cosmos 1624 Rocket 4.2 08:32:24 35° S 08:34:37 68° ESE 08:39:56 10° NNE
Cosmos 2233 Rocket 4.0 08:29:07 10° N 08:35:19 77° E 08:40:08 17° SSE
SL-14 R/B 3.4 08:34:44 45° SSE 08:35:45 67° E 08:39:41 10° NNE
USA 281 3.6 08:36:07 34° SW 08:37:55 40° WSW 08:44:01 10° NW
Cosmos 1980 Rocket 2.4 08:35:56 32° S 08:38:34 67° ESE 08:44:11 10° NNE
Cosmos 2016 Rocket 4.1 08:34:23 10° NNW 08:40:26 54° W 08:43:02 33° SSW
Cosmos 1626 2.1 08:42:30 57° WSW 08:42:51 61° W 08:46:31 10° N
ISS -2.1 08:39:49 10° NW 08:42:59 36° NNE 08:46:08 10° E
Cosmos 1975 Rocket 4.3 08:45:41 25° W 08:46:10 26° WNW 08:49:49 10° NNW
Cosmos 2061 Rocket 4.3 08:44:32 10° NNW 08:50:36 49° W 08:53:38 28° SSW
Cosmos 2227 Rocket 2.7 08:45:56 10° NW 08:51:06 38° WSW 08:52:41 32° SW
Timation 2 Rocket 4.4 08:45:52 10° NW 08:51:17 37° WSW 08:53:10 30° SW
Cosmos 304 Rocket 4.4 08:51:51 32° WSW 08:53:27 43° WNW 08:58:03 10° N
Cosmos 2297 Rocket 3.1 08:48:54 10° NW 08:53:38 28° WSW 08:54:12 27° WSW
DELTA 2 DEB (DPAF) 4.1 08:51:43 30° S 08:53:48 68° WSW 08:58:15 10° NNW
Cosmos 2056 Rocket 3.4 08:53:58 33° SSW 08:56:20 80° WNW 09:01:29 10° NNE
GRACE-FO 1 4.4 08:53:41 10° N 08:57:19 79° W 08:58:32 40° SSW
Cosmos 1300 2.7 08:53:46 10° N 08:57:37 82° E 08:59:48 24° SSE
GRACE-FO 2 4.4 08:54:07 10° N 08:57:45 78° W 08:58:58 40° SSW
ARGOS Delta rocket 4.3 08:53:18 10° N 08:57:45 45° WNW 08:59:36 30° WSW
Cosmos 2285 Rocket 4.0 08:55:09 26° SSW 08:58:59 87° WNW 09:05:29 10° NNE
Cosmos 2369 3.9 08:56:40 30° SW 08:59:30 61° WNW 09:05:12 10° NNE
Cosmos 2278 3.7 08:57:34 27° SSW 09:00:48 87° ESE 09:06:33 10° NNE
Geosat FO 4.5 09:02:14 10° NNE 09:05:41 86° ESE 09:07:06 35° SSW
Cosmos 2082 3.8 09:01:22 10° NNW 09:06:56 56° WSW 09:12:30 10° S
Cosmos 1371 Rocket 4.3 09:06:34 27° SW 09:09:12 54° WNW 09:14:20 10° NNE
Cosmos 1025 Rocket 4.2 09:08:50 24° WSW 09:10:02 28° WNW 09:13:50 10° NNW
OAO 2 Rocket 4.2 09:08:20 27° SSW 09:10:10 34° S 09:14:57 10° ESE
MSX 4.1 09:08:13 10° NNE 09:14:00 71° ESE 09:19:17 13° S
SL-16 R/B 3.5 09:09:03 10° S 09:14:09 36° ESE 09:19:17 10° NE
IRS-1D 4.0 09:12:58 10° N 09:18:07 50° WNW 09:21:23 22° SW
Iridium 2 4.2 09:16:55 29° SW 09:18:19 42° W 09:21:58 10° N
Cosmos 1140 Rocket 3.9 09:14:45 10° NW 09:19:38 41° WSW 09:23:28 16° SSW
SL-08 R/B 3.6 09:19:12 10° SSE 09:23:51 67° ENE 09:28:27 10° N
IDEFIX/ARIANE 42P 2.6 09:20:26 10° N 09:25:40 68° WNW 09:29:42 17° SSW
Cosmos 1892 Rocket 4.4 09:22:08 10° SSE 09:26:17 48° E 09:30:28 10° NNE
Cosmos 1340 2.8 09:24:28 25° SW 09:26:24 54° WNW 09:30:06 10° N
Meteor 1-28 Rocket 4.0 09:28:39 24° SW 09:29:58 30° W 09:33:17 10° NNW
COSMOS 2441 4.4 09:28:50 10° NNE 09:33:47 90° WNW 09:38:30 11° SSW
Meteor 2-10 Rocket 3.7 09:33:20 10° NNW 09:39:04 82° W 09:44:34 10° S
CZ-2C R/B 4.3 09:37:13 10° NNE 09:40:59 37° E 09:44:43 10° SSE
Cosmos 2322 Rocket 3.1 09:35:57 10° S 09:41:21 47° ESE 09:46:47 10° NE
Lacrosse 4 Rocket 3.2 09:38:55 12° W 09:41:51 22° NW 09:45:18 10° N
Cosmos 1891 Rocket 4.4 09:36:02 10° N 09:42:06 79° W 09:48:07 10° S
ADEOS II 3.4 09:40:08 10° N 09:44:20 25° WNW 09:47:49 13° WSW
ARIANE 5 R/B 2.5 09:39:48 10° N 09:44:56 75° WNW 09:49:59 10° SSW
Cosmos 2058 Rocket 3.9 09:40:41 10° N 09:45:08 54° E 09:49:33 10° SSE
IRS-P3 4.3 09:40:42 10° N 09:45:57 59° WNW 09:50:56 11° SSW
Cosmos 2263 Rocket 2.1 09:40:42 10° NNW 09:46:23 79° WSW 09:52:02 10° SSE
SL-16 R/B 4.2 09:45:42 12° WSW 09:47:37 13° W 09:50:34 10° WNW
Cosmos 1726 Rocket 3.5 09:43:28 10° N 09:47:52 85° W 09:52:17 10° S
Cosmos 1606 Rocket 3.6 09:43:35 10° NNW 09:47:57 65° W 09:52:21 10° S
Meteor 1-24 Rocket 4.1 09:43:44 14° SW 09:48:16 45° WNW 09:53:26 10° N
Cosmos 2228 3.2 09:45:31 10° NNW 09:49:40 50° W 09:53:50 10° S
CZ-2D R/B 4.3 09:50:48 10° NW 09:52:10 11° NW 09:53:32 10° WNW
NOSS 3-2 (A) 3.6 09:47:34 10° SSW 09:52:58 68° ESE 09:59:12 10° NE
Lacrosse 5 4.4 09:50:47 10° NW 09:53:56 16° N 09:57:07 10° NE
CZ-4B R/B 3.7 09:50:17 10° N 09:55:12 57° WNW 10:00:12 10° SSW
Cosmos 2346 Rocket 4.4 09:50:44 10° S 09:56:48 80° W 10:02:53 10° N
Tsikada Rocket 4.4 09:57:41 10° S 10:04:02 71° E 10:10:23 10° NNE
Cosmos 2360 Rocket 3.4 09:58:48 10° S 10:04:03 41° ESE 10:09:19 10° NE
Cosmos 1241 Rocket 4.5 09:59:05 10° NW 10:05:35 78° WSW 10:11:54 10° SSE
USA 238 DEB 4.0 10:00:28 10° SSW 10:06:55 67° ESE 10:13:40 10° NE
ADEOS Rocket 4.3 10:00:37 10° SSW 10:06:58 30° W 10:13:38 10° NNW
USA 238 4.0 10:00:35 10° SSW 10:07:01 66° ESE 10:13:46 10° NE
Aureole 2 Rocket 3.1 10:05:55 10° NW 10:08:01 20° WSW 10:10:07 10° SSW
Cosmos 405 4.4 10:05:55 10° NW 10:08:36 21° W 10:11:16 10° SW
SWAS 4.5 10:04:31 10° SSW 10:08:49 87° WNW 10:13:10 10° NNE
BREEZE-M DEB (TANK) 4.5 09:59:15 10° WNW 10:12:43 47° SW 10:16:38 10° SSE
Cosmos 1464 Rocket 4.2 10:08:18 10° NNW 10:14:13 50° W 10:20:10 10° SSW
Cosmos 292 Rocket 4.5 10:10:50 10° SW 10:15:24 40° WNW 10:20:00 10° N
Atlas Centaur 2 3.9 10:11:51 10° SW 10:17:23 23° S 10:22:09 10° ESE
BREEZE-M DEB (TANK) 3.3 10:17:31 10° W 10:19:34 44° NNW 10:24:02 10° ENE
ISS -3.2 10:16:39 10° WNW 10:19:48 36° SW 10:22:55 10° SSE
Cosmos 1980 Rocket 3.8 10:18:48 10° W 10:23:04 21° NW 10:27:21 10° N
Cosmos 1626 Rocket 3.9 10:19:54 10° S 10:24:14 70° E 10:28:40 10° NNE
Cosmos 2034 Rocket 4.1 10:18:19 10° NNW 10:24:33 60° W 10:30:41 10° S
